Starlink 33741

operational
NORAD ID: 63365 Int'l Des: 2025-063 Owner: SPXS Country: US Constellation: starlink
LEOCIRCULAR

Starlink 33741について

説明を読み込み中...

リアルタイム位置

3D地球を読み込み中...

次回通過

高度履歴

Altitude vs Time

uPlot chart will show altitude changes over time

軌道要素

1 63365U 25063C 25351.63589768 .00022773 00000-0 77902-3 0 9996
2 63365 53.1602 73.8110 0001234 74.3156 285.7981 15.30184340 42193
Epoch: Dec 17, 2025 • Age: 18 hours

現在のステータス

高度 479.0 km
速度 7.63 km/s
衛星直下点 45.07°N, 100.09°W
打ち上げ日 Mar 26, 2025
運用期間 0.7 years
タイプ internet

技術仕様

分類 Payload
質量 575.00 kg
乾燥質量 530.00 kg
総質量 575.00 kg
長さ 0.30 m
直径 4.10 m
スパン 29.00 m
形状 Box + pan
製造者 SPXS
バスタイプ Starlink V2MO
フェーズステータス In Orbit
所有者/国 SPXS/US

大規模コンステレーション

Loading constellations...